Погода в Доможирово

Россия / Санкт-Петербург и Ленинградская область     60°28′10″N   33°05′18″E
темп.,
°C
ветер,
м/с
пор.,
м/с
влажн.,
%
обл.,
%
осадки,
мм/ч
давл.,
гПа
погр.,
м
7 марта, вс
вс700:00−3ююз81594100 2.8 990937
03:00−1зюз61197100 5.8 987775
06:00−5з2394100 0.1 984104
09:00−5з4896100 1.4 985435
12:00−6з6994100 2.5 986507
15:00−6зсз61083100 2.9 987556
18:00−5ссз71293100 1.0 988817
21:00−7с71392100 1.7 990919
8 марта, пн
пн800:00−8ссв61384100 0.3 994782
03:00−10ссв61385100 0.4 998662
06:00−12ссв5128799 0.0 1002532
09:00−15ссв4108997 0.0 1006433
12:00−13ссв478666 0.0 1008526
15:00−11с468682 0.0 1011566
18:00−14с3692100 0.0 1013153
21:00−18ссв339577 0.0 101561
9 марта, вт
вт900:00−22ссв23950 0.0 101726
03:00−24ссв239525 0.0 101836
06:00−26св239585 0.0 101935
09:00−26св239352 0.0 1021125
12:00−21св238411 0.0 1022330
15:00−17св23796 0.0 1023400
18:00−18св12900 0.0 102320
21:00−21всв22910 0.0 102420
10 марта, ср
ср1000:00−23в11900 0.0 102520
03:00−23в12910 0.0 102620
06:00−24вюв11920 0.0 102620
09:00−22юв11890 0.0 102731
12:00−17вюв017948 0.0 1027176
15:00−15сз117874 0.0 1027182
18:00−17ссз1181100 0.0 102620
21:00−18ююв1174100 0.0 102620
11 марта, чт
чт1100:00−19юв118261 0.0 102520
03:00−19юв228931 0.0 102520
06:00−20юв23890 0.0 102427
09:00−17юв36790 0.0 1022152
12:00−10юв410710 0.0 1019478
15:00−7юв511700 0.0 1016678
18:00−8ююв5118764 0.0 1012498
21:00−9ююв5149082 0.0 1008418